Regional Weather Roundup
Issued by NWS

Home | Current Version | Previous Version | Text Only | Print | Product List | Glossary Off
Versions: 1 2 3 4 5 6 7 8 9 10 11 12 13 14 15 16 17 18 19 20 21 22 23 24 25 26 27 28 29 30 31 32 33 34 35 36 37 38 39 40 41 42 43 44 45 46 47 48 49 50

321
ASUS45 KSLC 300710
RWRUT

UTAH REGIONAL WEATHER ROUNDUP
NATIONAL WEATHER SERVICE SALT LAKE CITY UT
100 AM MDT SAT APR 30 2016

UTZ001>011-023>025-300800-

NORTHERN UTAH

CITY           SKY/WX    TMP DP  RH WIND       PRES   REMARKS
BRIGHAM CITY   MOCLDY    45  38  76 W7        29.87S
HILL AFB       MOCLDY    44  37  77 E16       29.86S
LOGAN          CLOUDY    42  39  89 CALM      29.88S
OGDEN          PTCLDY    42  37  82 SW5       29.86R
PROVO AIRPORT  MOCLDY    43  36  75 CALM      29.87R
SALT LAKE CITY MOCLDY    48  41  76 SW5       29.86R
VERNAL         CLEAR     40  29  64 CALM      29.86R
WENDOVER       CLOUDY    45  39  81 W10       29.91S
HEBER CITY     PTCLDY    34  32  93 CALM      29.87R

$$

UTZ012>022-026-027-300800-

SOUTHERN/CENTRAL UTAH

CITY           SKY/WX    TMP DP  RH WIND       PRES   REMARKS
BLANDING       MOCLDY    37  35  90 E3        29.94R
BRYCE CANYON   MOCLDY    34  31  88 VRB5      29.89F WCI  30
CEDAR CITY     CLOUDY    43  37  79 CALM      29.84F
DELTA          CLOUDY    43  41  93 S3        29.87R
HANKSVILLE     PTCLDY    45  41  87 N5        29.85R
MILFORD        CLOUDY    44  40  85 NE10      29.85F
MOAB/CYNLANDS  CLOUDY    47  43  86 CALM      29.82R
PRICE          PTCLDY    41  32  70 N12       29.85R
ST GEORGE      CLOUDY    52  45  76 W8        29.85R
KANAB          CLOUDY    45  43  93 CALM      29.91S

$$

REGIONAL REPORTS     COLORADO/ARIZONA

CITY           SKY/WX    TMP DP  RH WIND       PRES   REMARKS
CRAIG, CO      CLOUDY    36  29  75 W9        29.87R WCI  29
GRAND JUNCTION MOCLDY    43  40  89 CALM      29.83S
RIFLE          CLOUDY    42  37  82 W7        29.83R
MONTROSE       CLOUDY    42  35  76 S7        29.87R
CORTEZ         MOCLDY    33  32  96 NE6       29.88R WCI  28
PAGE, AZ       MOCLDY    54  37  52 SW5       29.83F
GRAND CANYON   LGT RAIN  40  34  79 W9        29.93R WCI  34
KINGMAN        PTCLDY    59  34  39 S10       29.77F
FLAGSTAFF      CLOUDY    35  35 100 S3        29.93F

$$

REGIONAL REPORTS    NEVADA/IDAHO/WYOMING

CITY           SKY/WX    TMP DP  RH WIND       PRES   REMARKS
LAS VEGAS, NV  CLOUDY    66  41  40 N14       29.67R
ELY            CLOUDY    36  32  85 SE3       29.89F
ELKO           LGT RAIN  41  37  86 CALM      29.92R
POCATELLO, ID  CLOUDY    40  37  89 SE3       29.91R
BURLEY         CLOUDY    44  38  79 W9G17     29.90R
EVANSTON, WY   CLEAR     33  26  75 NE7       29.90S WCI  27
ROCK SPRINGS   CLOUDY    33  30  88 NE8       29.93R WCI  26
KEMMERER         N/A     32  28  86 E6        29.94R WCI  26

$$




USA.gov is the U.S. government's official web portal to all federal, state and local government web resources and services.